Showing default

ZK-1A / RB, 100789

Orbit data source: Space-Track

ZK-1A / RB, 100789 is a Chinese payload satellite in SSO that was launched on Mon, 21 Sep 2026 UTC launched from the Jiuquan Satellite Launch Center, China (JSC). Payload-class satellites include a variety of spacecraft equipped with specific instruments for various scientific and technological missions. These include communications satellites like Starlink; space stations such as the ISS; scientific satellites like the Hubble; Earth observation satellites from companies like Planet Labs, Umbra, and HawkEye 360; GPS; miniature CubeSats for education and research; and military/defense satellites.

Loading next visibility...
Identifier
100789, 2026-220K
Orbit
SSO
Country
Flag of CNCN / PRC
Related business
None
Manufacturer
Unknown
Mission
Operational spacecraft
Bus & Motor
Unknown
Mass
Unknown
Launch date (UTC)
Icon of a cake. It is the launch day of the satellite!2026-09-21 (11 hours ago)
Launch vehicle
Unknown
Launch site
Jiuquan Satellite Launch Center, China (JSC)
Object type
Payload
Rocket body
Debris
Shape & HBR
Unknown
Radar Cross Section
RCS unknown

Expand to show TLE details & history
Last TLE update: 9 hours ago

TLE from 9 hours ago
0 ZK-1A / RB
1 A0789U 26220K   26264.55846415  .00182089  11051-4  59691-3 0  9997
2 A0789  97.5752 338.1246 0224020  10.5095 350.0729 15.60815498   225
Epoch: 2026-09-21T13:24Z
TLE epoch observation values (Epoch: 2026-09-21T13:24:11.302Z)
Latitude
-0.00005°
Longitude
136.64095°
Altitude
239.266 km
Speed
7.848 km/s
True Right ascension
22h 32m 29s
True Declination
0° 00' 00"
Sunlit
Object was in full shadow at epoch
Visualization orbit readout
Latitude
Unknown
Longitude
Unknown
Altitude
Unknown
Speed
Unknown
Apparent Right ascension
Unknown
Apparent Declination
Unknown
Sunlit
N/A
Visualization observer readout
Local Sidereal Time
15:37:07
Azimuth
Unknown
Elevation
Unknown
Doppler factor
Unknown
Orbital elements
Apogee altitude
533.662 km
Perigee altitude
230.772 km
Semi-major axis
6,760.354 km
Eccentricity
0.0224
Inclination
97.5752°
RAAN
338.1246°
Arg. of periapsis
10.5095°
True anomaly
349.61781°
Mean anomaly
350.0729°
Eccentric anomaly
349.84663°
Mean motion
3.90471 °/min
Orbital period
92.2 mins
BSTAR
0.00059691
Loading maneuver chart data...
Computing Atmospheric mass density...
Loading historical data...
Loading historical data...
Loading historical data...
Loading historical data...
Loading historical data...
Loading historical data...
Loading historical data...

Documentation

Showing up to 5 results
|